Regional Weather Roundup
Issued by NWS

Home | Current Version | Previous Version | Text Only | Print | Product List | Glossary On
Versions: 1 2 3 4 5 6 7 8 9 10 11 12 13 14 15 16 17 18 19 20 21 22 23 24 25 26 27 28 29 30 31 32 33 34 35 36 37 38 39 40 41 42 43 44 45 46 47 48 49 50
000
ASUS43 KFSD 292102
RWRSD

WEATHER ROUNDUP FOR SOUTH DAKOTA
NATIONAL WEATHER SERVICE SIOUX FALLS SD
400 PM CDT WED JUL 29 2015

NOTE: "FAIR" INDICATES FEW OR NO CLOUDS BELOW 12,000 FEET WITH NO
SIGNIFICANT WEATHER AND/OR OBSTRUCTIONS TO VISIBILITY.


SDZ001>005-009-010-012>017-292200-
NORTHWEST AND NORTH CENTRAL SOUTH DAKOTA

CITY           SKY/WX    TMP DP  RH WIND       PRES   REMARKS
BUFFALO          N/A     82  38  20 W26G33    30.11F
FAITH            N/A     84  33  16 W17G28    30.14F
MOBRIDGE       SUNNY     85  48  27 NW21G26   30.05F
$$

SDZ012>016-024>037-041>051-057-063-072>074-292200-
SOUTHWEST AND SOUTH CENTRAL SOUTH DAKOTA

CITY           SKY/WX    TMP DP  RH WIND       PRES   REMARKS
RAPID CTY ARPT SUNNY     82  47  29 N8        30.20F
PIERRE         SUNNY     87  38  17 W22G33    30.09F
CUSTER         SUNNY     72  35  25 SW9G16    30.34F
ELLSWORTH AFB  SUNNY     81  42  25 E6        30.20F
PHILIP         SUNNY     86  43  22 W13G23    30.15F
PINE RIDGE     SUNNY     82  46  28 SW8       30.23F
WINNER         FAIR      88  42  20 W15G29    30.16F
$$

SDZ004>011-016>023-039-040-292200-
NORTHEAST SOUTH DAKOTA

CITY           SKY/WX    TMP DP  RH WIND       PRES   REMARKS
ABERDEEN       MOSUNNY   84  48  28 W24G35    30.02F
WATERTOWN      SUNNY     81  50  33 W24G32    30.05S
BROOKINGS      SUNNY     81  52  36 W25G31    30.08S
SISSETON         N/A     81  51  35 NW25G37   29.96S
$$

SDZ017-020-022-023-036>040-048>070-292200-
SOUTHEAST SOUTH DAKOTA

CITY           SKY/WX    TMP DP  RH WIND       PRES   REMARKS
SIOUX FALLS    MOSUNNY   82  52  35 NW14G24   30.09F
HURON          SUNNY     85  48  27 W21G26    30.06F
MITCHELL       SUNNY     86  47  25 NW16G26   30.09F
YANKTON        SUNNY     84  50  30 W14G22    30.11F
$$

ABBREVIATIONS USED IN REMARKS
   TC - TEMPERATURE IN CELSIUS
  WCI - WIND CHILL INDEX
   HX - HEAT INDEX
  VSB - VISIBILITY



USA.gov is the U.S. government's official web portal to all federal, state and local government web resources and services.